Hourly Weather Bolshoy Keltey

Today, 1 August, Sunday

Time Temperature Precipitation Wind Pressure Humidity
00:00 +19°C° 0.1 mm 3 mps 744 mmHg 92%
01:00 +19°C° 0.1 mm 3 mps 744 mmHg 93%
02:00 +18°C° 0 mm 3 mps 744 mmHg 93%
03:00 +18°C° 0 mm 3 mps 745 mmHg 93%
04:00 +18°C° 0 mm 2 mps 745 mmHg 94%
05:00 +19°C° 0 mm 3 mps 745 mmHg 90%
06:00 +20°C° 0 mm 3 mps 745 mmHg 87%
07:00 +21°C° 0 mm 3 mps 746 mmHg 84%
08:00 +23°C° 0 mm 4 mps 746 mmHg 71%
09:00 +26°C° 0 mm 5 mps 746 mmHg 58%
10:00 +28°C° 0 mm 6 mps 746 mmHg 46%
11:00 +29°C° 0 mm 7 mps 746 mmHg 41%
12:00 +30°C° 0 mm 7 mps 746 mmHg 37%
13:00 +32°C° 0 mm 8 mps 746 mmHg 33%
14:00 +32°C° 0 mm 7 mps 746 mmHg 33%
15:00 +32°C° 0 mm 7 mps 747 mmHg 32%
16:00 +32°C° 0 mm 6 mps 747 mmHg 32%
17:00 +30°C° 0 mm 6 mps 747 mmHg 35%
18:00 +28°C° 0 mm 5 mps 747 mmHg 39%
19:00 +27°C° 0 mm 4 mps 747 mmHg 43%
20:00 +25°C° 0 mm 3 mps 747 mmHg 49%
21:00 +23°C° 0 mm 2 mps 748 mmHg 56%
22:00 +21°C° 0 mm 1 mps 748 mmHg 62%
23:00 +21°C° 0 mm 1 mps 748 mmHg 65%

Tomorrow, 2 August, Monday

Time Temperature Precipitation Wind Pressure Humidity
00:00 +20°C° 0 mm 1 mps 748 mmHg 67%
01:00 +20°C° 0 mm 1 mps 748 mmHg 69%
02:00 +19°C° 0 mm 1 mps 749 mmHg 71%
03:00 +19°C° 0 mm 1 mps 749 mmHg 73%
04:00 +18°C° 0 mm 1 mps 749 mmHg 75%
05:00 +20°C° 0 mm 1 mps 749 mmHg 70%
06:00 +20°C° 0 mm 2 mps 749 mmHg 66%
07:00 +21°C° 0 mm 2 mps 750 mmHg 61%
08:00 +24°C° 0 mm 2 mps 750 mmHg 55%
09:00 +26°C° 0 mm 3 mps 750 mmHg 50%
10:00 +28°C° 0 mm 3 mps 750 mmHg 44%
11:00 +29°C° 0 mm 3 mps 750 mmHg 40%
12:00 +30°C° 0 mm 3 mps 750 mmHg 37%
13:00 +31°C° 0 mm 3 mps 750 mmHg 33%
14:00 +33°C° 0 mm 3 mps 749 mmHg 32%
15:00 +33°C° 0 mm 3 mps 749 mmHg 31%
16:00 +33°C° 0 mm 3 mps 749 mmHg 30%
17:00 +31°C° 0 mm 2 mps 749 mmHg 35%
18:00 +30°C° 0 mm 2 mps 749 mmHg 39%
19:00 +29°C° 0 mm 1 mps 749 mmHg 43%
20:00 +28°C° 0 mm 1 mps 749 mmHg 45%
21:00 +26°C° 0 mm 1 mps 749 mmHg 47%
22:00 +24°C° 0 mm 1 mps 749 mmHg 50%
23:00 +24°C° 0 mm 1 mps 749 mmHg 51%

Day after tomorrow, 3 August, Tuesday

Time Temperature Precipitation Wind Pressure Humidity
00:00 +23°C° 0 mm 1 mps 749 mmHg 53%
01:00 +21°C° 0 mm 2 mps 749 mmHg 55%
02:00 +21°C° 0 mm 2 mps 749 mmHg 55%
03:00 +20°C° 0 mm 2 mps 749 mmHg 55%
04:00 +20°C° 0 mm 2 mps 749 mmHg 55%
05:00 +21°C° 0 mm 2 mps 749 mmHg 52%
06:00 +23°C° 0 mm 2 mps 749 mmHg 49%
07:00 +25°C° 0 mm 2 mps 749 mmHg 46%
08:00 +27°C° 0 mm 2 mps 749 mmHg 40%
09:00 +30°C° 0 mm 2 mps 748 mmHg 34%
10:00 +32°C° 0 mm 2 mps 748 mmHg 28%
11:00 +35°C° 0 mm 2 mps 748 mmHg 26%
12:00 +36°C° 0 mm 2 mps 748 mmHg 24%
13:00 +38°C° 0 mm 2 mps 748 mmHg 21%
14:00 +37°C° 0 mm 2 mps 747 mmHg 22%
15:00 +37°C° 0 mm 2 mps 747 mmHg 22%
16:00 +37°C° 0 mm 3 mps 747 mmHg 23%
17:00 +35°C° 0 mm 3 mps 747 mmHg 27%
18:00 +34°C° 0 mm 3 mps 747 mmHg 31%
19:00 +31°C° 0 mm 3 mps 747 mmHg 36%
20:00 +30°C° 0 mm 3 mps 747 mmHg 37%
21:00 +29°C° 0 mm 3 mps 746 mmHg 37%
22:00 +27°C° 0 mm 3 mps 746 mmHg 38%
23:00 +27°C° 0 mm 3 mps 746 mmHg 38%

4 August, Wednesday

Time Temperature Precipitation Wind Pressure Humidity
00:00 +27°C° 0 mm 3 mps 746 mmHg 39%
01:00 +26°C° 0 mm 3 mps 746 mmHg 39%
02:00 +25°C° 0 mm 3 mps 746 mmHg 44%
03:00 +24°C° 0 mm 3 mps 746 mmHg 49%
04:00 +22°C° 0 mm 3 mps 745 mmHg 54%
05:00 +23°C° 0 mm 2 mps 746 mmHg 53%
06:00 +24°C° 0 mm 2 mps 746 mmHg 51%
07:00 +25°C° 0 mm 2 mps 746 mmHg 50%
08:00 +28°C° 0 mm 2 mps 746 mmHg 44%
09:00 +30°C° 0 mm 2 mps 746 mmHg 38%
10:00 +32°C° 0 mm 1 mps 746 mmHg 33%
11:00 +33°C° 0 mm 1 mps 746 mmHg 31%
12:00 +35°C° 0 mm 1 mps 746 mmHg 29%
13:00 +36°C° 0 mm 1 mps 746 mmHg 27%
14:00 +37°C° 0 mm 2 mps 746 mmHg 26%
15:00 +37°C° 0 mm 3 mps 745 mmHg 26%
16:00 +39°C° 0 mm 5 mps 745 mmHg 26%
17:00 +35°C° 0.2 mm 4 mps 746 mmHg 36%
18:00 +32°C° 0.2 mm 4 mps 746 mmHg 47%
19:00 +28°C° 0.2 mm 3 mps 746 mmHg 57%
20:00 +26°C° 0 mm 3 mps 746 mmHg 63%
21:00 +25°C° 0 mm 2 mps 747 mmHg 69%
22:00 +23°C° 0 mm 2 mps 747 mmHg 75%
23:00 +21°C° 0.5 mm 2 mps 747 mmHg 80%

5 August, Thursday

Time Temperature Precipitation Wind Pressure Humidity
00:00 +20°C° 0.5 mm 2 mps 747 mmHg 85%
01:00 +20°C° 0.5 mm 1 mps 747 mmHg 90%
02:00 +19°C° 0.2 mm 2 mps 748 mmHg 91%
03:00 +18°C° 0.2 mm 2 mps 748 mmHg 93%
04:00 +18°C° 0.2 mm 2 mps 748 mmHg 94%
05:00 +19°C° 0 mm 2 mps 748 mmHg 92%
06:00 +20°C° 0 mm 2 mps 748 mmHg 89%
07:00 +20°C° 0 mm 2 mps 748 mmHg 87%
08:00 +22°C° 0 mm 3 mps 748 mmHg 76%
09:00 +25°C° 0 mm 3 mps 748 mmHg 65%
10:00 +26°C° 0 mm 4 mps 748 mmHg 55%
11:00 +27°C° 0 mm 4 mps 748 mmHg 50%
12:00 +28°C° 0 mm 4 mps 748 mmHg 45%
13:00 +29°C° 0 mm 4 mps 748 mmHg 40%
14:00 +29°C° 0 mm 4 mps 748 mmHg 38%
15:00 +30°C° 0 mm 4 mps 748 mmHg 37%
16:00 +30°C° 0 mm 4 mps 748 mmHg 35%
17:00 +29°C° 0 mm 4 mps 748 mmHg 37%
18:00 +28°C° 0 mm 4 mps 748 mmHg 39%
19:00 +27°C° 0 mm 4 mps 748 mmHg 42%
20:00 +25°C° 0 mm 4 mps 748 mmHg 47%
21:00 +22°C° 0 mm 3 mps 748 mmHg 51%
22:00 +20°C° 0 mm 3 mps 748 mmHg 56%
23:00 +19°C° 0 mm 3 mps 748 mmHg 61%

6 August, Friday

Time Temperature Precipitation Wind Pressure Humidity
00:00 +18°C° 0 mm 2 mps 748 mmHg 65%
01:00 +17°C° 0 mm 2 mps 748 mmHg 69%
02:00 +16°C° 0 mm 2 mps 749 mmHg 75%
03:00 +16°C° 0 mm 3 mps 749 mmHg 81%
04:00 +14°C° 0 mm 3 mps 749 mmHg 87%
05:00 +16°C° 0 mm 3 mps 749 mmHg 81%
06:00 +17°C° 0 mm 3 mps 749 mmHg 75%
07:00 +19°C° 0 mm 3 mps 750 mmHg 69%
08:00 +20°C° 0 mm 4 mps 750 mmHg 62%
09:00 +22°C° 0 mm 4 mps 750 mmHg 55%
10:00 +23°C° 0 mm 4 mps 750 mmHg 47%
11:00 +25°C° 0 mm 4 mps 750 mmHg 43%
12:00 +25°C° 0 mm 4 mps 750 mmHg 40%
13:00 +26°C° 0 mm 4 mps 750 mmHg 36%
14:00 +26°C° 0 mm 5 mps 750 mmHg 34%
15:00 +26°C° 0 mm 5 mps 750 mmHg 32%
16:00 +26°C° 0 mm 5 mps 750 mmHg 30%
17:00 +25°C° 0 mm 5 mps 751 mmHg 32%
18:00 +23°C° 0 mm 5 mps 751 mmHg 34%
19:00 +22°C° 0 mm 4 mps 751 mmHg 36%
20:00 +20°C° 0 mm 4 mps 751 mmHg 43%
21:00 +18°C° 0 mm 3 mps 751 mmHg 51%
22:00 +14°C° 0 mm 3 mps 752 mmHg 58%
23:00 +14°C° 0 mm 3 mps 752 mmHg 63%
Show more

We Need Your Consent

Meteoprog and our Service Providers may store and access personal data such as cookies, device identifiers or other similar technologies on your device and process such data to personalise content and ads, as well as provide social media features and to analyse the traffic.

  • Store and/or access information on your device

    Cookies, device identifiers or other information can be stored or accessed on your device for the purposes indicated above.

  • Personalised ads and content, ad and content measurement, audience insights, and products development

    Ads and content can be personalised based on a profile. More data can be added to better personalise ads and content. Ad and content performance can be measured. Insights about the audience who saw the ads and content can be derived. Such data can be used to develop or improve user’s experience, systems and software.

By clicking ‘I Agree’ you will allow the use of indicated cookies, device identifiers, web beacons or other similar technologies. Your settings can be changed in the browser on your device.

For certain purposes, legitimate interests may be relied on, rather than consent. You can read more about this in our Privacy and Cookie Policy.